Location: Newark
(35.8833°N, 14.5000°E)
Time: 22:37:04
(UTC+00:00)

Altair - Pass Details

Date: 20 November 2019
Orbit: 1502 x 1682 km, 47.2° (Epoch: 12 December)

Event Time Altitude Azimuth Distance (km) Brightness Sun altitude
Rises 01:30:10 0° 237° (WSW) 4,661 - -50.8°
Reaches altitude 10° 01:33:12 10° 238° (WSW) 3,666 - -50.2°
Maximum altitude 01:42:26 83° 326° (NW) 1,511 - -48.4°
Exits shadow 01:46:47 37° 52° (NE) 2,193 8.4 -47.5°
Drops below altitude 10° 01:51:40 10° 56° (NE) 3,666 9.9 -46.6°
Sets 01:54:42 0° 57° (ENE) 4,661 10.7 -46.0°
